Time,TemperatureF,DewpointF,PressureIn,WindDirection,WindDirectionDegrees,WindSpeedMPH,WindSpeedGustMPH,Humidity,HourlyPrecipIn,Conditions,Clouds,dailyrainin,SolarRadiationWatts/m^2,SoftwareType,DateUTC
2013-01-02 00:00:00,1.0,-2.2,29.78,NW,304,0.0,0.0,86,0.00,CLR,,0.00,0.0,WeatherDisplay:10.37,2013-01-02 05:00:00,
2013-01-02 00:01:00,1.0,-2.2,29.78,WNW,303,0.0,0.0,86,0.00,CLR,,0.00,0.0,WeatherDisplay:10.37,2013-01-02 05:01:00,
2013-01-02 00:06:00,1.0,-2.2,29.78,WNW,303,0.0,0.0,86,0.00,CLR,,0.00,0.0,WeatherDisplay:10.37,2013-01-02 05:06:00,
2013-01-02 00:11:00,1.0,-2.2,29.78,NW,304,0.0,0.0,86,0.00,CLR,,0.00,0.0,WeatherDisplay:10.37,2013-01-02 05:11:00,
2013-01-02 00:16:00,0.9,-2.3,29.78,WNW,303,0.0,0.0,86,0.00,CLR,,0.00,0.0,WeatherDisplay:10.37,2013-01-02 05:16:00,
2013-01-02 00:21:00,0.9,-2.3,29.78,WNW,303,0.0,0.0,86,0.00,CLR,,0.00,0.0,WeatherDisplay:10.37,2013-01-02 05:21:00,
2013-01-02 00:26:00,0.8,-2.4,29.78,NW,304,0.0,0.0,86,0.00,CLR,,0.00,0.0,WeatherDisplay:10.37,2013-01-02 05:26:00,
2013-01-02 00:31:00,0.8,-2.4,29.78,NW,304,0.0,0.0,86,0.00,CLR,,0.00,0.0,WeatherDisplay:10.37,2013-01-02 05:31:00,
2013-01-02 00:36:00,0.7,-2.5,29.77,WNW,303,0.0,0.0,86,0.00,CLR,,0.00,0.0,WeatherDisplay:10.37,2013-01-02 05:36:00,
2013-01-02 00:41:00,0.7,-2.5,29.77,NW,304,0.0,0.0,86,0.00,CLR,,0.00,0.0,WeatherDisplay:10.37,2013-01-02 05:41:00,
2013-01-02 00:46:00,0.6,-2.6,29.77,WNW,303,2.3,2.3,86,0.00,CLR,,0.00,0.0,WeatherDisplay:10.37,2013-01-02 05:46:00,
2013-01-02 00:51:00,0.6,-2.6,29.77,WNW,303,0.0,0.0,86,0.00,CLR,,0.00,0.0,WeatherDisplay:10.37,2013-01-02 05:51:00,
2013-01-02 00:56:00,0.5,-2.7,29.77,WNW,303,0.0,0.0,86,0.00,CLR,,0.00,0.0,WeatherDisplay:10.37,2013-01-02 05:56:00,
2013-01-02 01:02:00,0.4,-2.8,29.77,WNW,303,0.0,0.0,86,0.00,CLR,,0.00,0.0,WeatherDisplay:10.37,2013-01-02 06:02:00,
2013-01-02 01:07:00,0.3,-2.9,29.77,NW,304,0.0,0.0,86,0.00,CLR,,0.00,0.0,WeatherDisplay:10.37,2013-01-02 06:07:00,
2013-01-02 01:12:00,0.2,-3.0,29.77,WNW,303,0.0,0.0,86,0.00,CLR,,0.00,0.0,WeatherDisplay:10.37,2013-01-02 06:12:00,
2013-01-02 01:17:00,0.1,-3.1,29.77,WNW,303,0.0,0.0,86,0.00,CLR,,0.00,0.0,WeatherDisplay:10.37,2013-01-02 06:17:00,
2013-01-02 01:22:00,-0.1,-3.3,29.77,NW,304,0.0,0.0,86,0.00,CLR,,0.00,0.0,WeatherDisplay:10.37,2013-01-02 06:22:00,
2013-01-02 01:27:00,-0.1,-3.3,29.77,WNW,303,0.0,0.0,86,0.00,CLR,,0.00,0.0,WeatherDisplay:10.37,2013-01-02 06:27:00,
2013-01-02 01:32:00,-0.3,-3.5,29.77,NW,304,0.0,0.0,86,0.00,CLR,,0.00,0.0,WeatherDisplay:10.37,2013-01-02 06:32:00,
2013-01-02 01:37:00,-0.3,-3.5,29.78,NW,304,0.0,0.0,86,0.00,CLR,,0.00,0.0,WeatherDisplay:10.37,2013-01-02 06:37:00,
2013-01-02 01:42:00,-0.4,-3.6,29.78,NW,304,0.0,0.0,86,0.00,CLR,,0.00,0.0,WeatherDisplay:10.37,2013-01-02 06:42:00,
2013-01-02 01:47:00,-0.5,-3.7,29.78,WNW,303,1.1,1.1,86,0.00,CLR,,0.00,0.0,WeatherDisplay:10.37,2013-01-02 06:47:00,
2013-01-02 01:52:00,-0.6,-3.8,29.78,NW,304,0.0,0.0,86,0.00,CLR,,0.00,0.0,WeatherDisplay:10.37,2013-01-02 06:52:00,
2013-01-02 01:57:00,-0.7,-4.1,29.78,NW,304,0.0,0.0,85,0.00,CLR,,0.00,0.0,WeatherDisplay:10.37,2013-01-02 06:57:00,
2013-01-02 02:02:00,-0.8,-4.2,29.78,NW,304,0.0,0.0,85,0.00,CLR,,0.00,0.0,WeatherDisplay:10.37,2013-01-02 07:02:00,
2013-01-02 02:07:00,-0.9,-4.3,29.77,WNW,303,1.1,1.1,85,0.00,CLR,,0.00,0.0,WeatherDisplay:10.37,2013-01-02 07:07:00,
2013-01-02 02:12:00,-0.9,-4.3,29.77,WNW,303,1.0,0.0,85,0.00,CLR,,0.00,0.0,WeatherDisplay:10.37,2013-01-02 07:12:00,
2013-01-02 02:17:00,-0.9,-4.1,29.77,NW,304,1.1,1.1,86,0.00,CLR,,0.00,0.0,WeatherDisplay:10.37,2013-01-02 07:17:00,
2013-01-02 02:22:00,-1.0,-4.2,29.77,NW,304,0.0,0.0,86,0.00,CLR,,0.00,0.0,WeatherDisplay:10.37,2013-01-02 07:22:00,
2013-01-02 02:27:00,-1.0,-4.2,29.77,NW,304,0.0,0.0,86,0.00,CLR,,0.00,0.0,WeatherDisplay:10.37,2013-01-02 07:27:00,
2013-01-02 02:32:00,-1.0,-4.2,29.77,WNW,303,0.0,0.0,86,0.00,CLR,,0.00,0.0,WeatherDisplay:10.37,2013-01-02 07:32:00,
2013-01-02 02:37:00,-1.1,-4.3,29.77,NW,304,1.1,0.0,86,0.00,CLR,,0.00,0.0,WeatherDisplay:10.37,2013-01-02 07:37:00,
2013-01-02 02:42:00,-1.2,-4.4,29.77,WNW,303,0.0,0.0,86,0.00,CLR,,0.00,0.0,WeatherDisplay:10.37,2013-01-02 07:42:00,
2013-01-02 02:47:00,-1.2,-4.4,29.77,NW,304,0.0,0.0,86,0.00,CLR,,0.00,0.0,WeatherDisplay:10.37,2013-01-02 07:47:00,
2013-01-02 02:52:00,-1.2,-4.4,29.77,NW,304,1.1,1.1,86,0.00,CLR,,0.00,0.0,WeatherDisplay:10.37,2013-01-02 07:52:00,
2013-01-02 02:57:00,-1.2,-4.4,29.77,NW,304,0.0,0.0,86,0.00,CLR,,0.00,0.0,WeatherDisplay:10.37,2013-01-02 07:57:00,
2013-01-02 03:02:00,-1.3,-4.5,29.77,NW,304,1.1,1.1,86,0.00,CLR,,0.00,0.0,WeatherDisplay:10.37,2013-01-02 08:02:00,
2013-01-02 03:07:00,-1.3,-4.5,29.77,NW,304,0.0,0.0,86,0.00,CLR,,0.00,0.0,WeatherDisplay:10.37,2013-01-02 08:07:00,
2013-01-02 03:12:00,-1.1,-4.3,29.77,NNE,18,2.3,2.3,86,0.00,CLR,,0.00,0.0,WeatherDisplay:10.37,2013-01-02 08:12:00,
2013-01-02 03:17:00,-1.0,-4.2,29.77,NNE,18,1.1,0.0,86,0.00,CLR,,0.00,0.0,WeatherDisplay:10.37,2013-01-02 08:17:00,
2013-01-02 03:22:00,-1.0,-4.2,29.77,NNE,18,0.0,0.0,86,0.00,CLR,,0.00,0.0,WeatherDisplay:10.37,2013-01-02 08:22:00,
2013-01-02 03:27:00,-1.0,-4.2,29.77,NNE,18,1.1,1.1,86,0.00,CLR,,0.00,0.0,WeatherDisplay:10.37,2013-01-02 08:27:00,
2013-01-02 03:32:00,-1.1,-4.3,29.77,NNE,18,0.0,0.0,86,0.00,CLR,,0.00,0.0,WeatherDisplay:10.37,2013-01-02 08:32:00,
2013-01-02 03:37:00,-1.2,-4.4,29.77,NNE,18,2.3,2.3,86,0.00,CLR,,0.00,0.0,WeatherDisplay:10.37,2013-01-02 08:37:00,
2013-01-02 03:42:00,-1.3,-4.5,29.77,NNE,18,1.0,1.0,86,0.00,CLR,,0.00,0.0,WeatherDisplay:10.37,2013-01-02 08:42:00,
2013-01-02 03:47:00,-1.3,-4.7,29.77,NNE,18,0.0,0.0,85,0.00,CLR,,0.00,0.0,WeatherDisplay:10.37,2013-01-02 08:47:00,
2013-01-02 03:52:00,-1.4,-4.8,29.77,NNE,18,0.0,0.0,85,0.00,CLR,,0.00,0.0,WeatherDisplay:10.37,2013-01-02 08:52:00,
2013-01-02 03:57:00,-1.5,-4.9,29.77,NNE,18,1.1,1.1,85,0.00,CLR,,0.00,0.0,WeatherDisplay:10.37,2013-01-02 08:57:00,
2013-01-02 04:02:00,-1.6,-5.0,29.77,NNE,18,0.0,0.0,85,0.00,CLR,,0.00,0.0,WeatherDisplay:10.37,2013-01-02 09:02:00,
2013-01-02 04:07:00,-1.8,-5.2,29.77,NNE,18,1.1,1.1,85,0.00,CLR,,0.00,0.0,WeatherDisplay:10.37,2013-01-02 09:07:00,
2013-01-02 04:12:00,-1.9,-5.3,29.77,NNE,18,0.0,0.0,85,0.00,CLR,,0.00,0.0,WeatherDisplay:10.37,2013-01-02 09:12:00,
2013-01-02 04:17:00,-2.0,-5.4,29.77,NNE,18,0.0,0.0,85,0.00,CLR,,0.00,0.0,WeatherDisplay:10.37,2013-01-02 09:17:00,
2013-01-02 04:22:00,-2.1,-5.5,29.77,NNE,18,0.0,0.0,85,0.00,CLR,,0.00,0.0,WeatherDisplay:10.37,2013-01-02 09:22:00,
2013-01-02 04:27:00,-2.2,-5.8,29.77,NNE,18,0.0,0.0,84,0.00,CLR,,0.00,0.0,WeatherDisplay:10.37,2013-01-02 09:27:00,
2013-01-02 04:32:00,-2.3,-5.7,29.77,NNE,18,1.1,1.1,85,0.00,CLR,,0.00,0.0,WeatherDisplay:10.37,2013-01-02 09:32:00,
2013-01-02 04:37:00,-2.4,-5.8,29.77,NNE,18,0.0,0.0,85,0.00,CLR,,0.00,0.0,WeatherDisplay:10.37,2013-01-02 09:37:00,
2013-01-02 04:42:00,-2.4,-5.8,29.77,NNE,18,1.1,1.1,85,0.00,CLR,,0.00,0.0,WeatherDisplay:10.37,2013-01-02 09:42:00,
2013-01-02 04:47:00,-2.4,-6.0,29.77,NNE,18,0.0,0.0,84,0.00,CLR,,0.00,0.0,WeatherDisplay:10.37,2013-01-02 09:47:00,
2013-01-02 04:52:00,-2.5,-6.1,29.77,NNE,18,0.0,0.0,84,0.00,CLR,,0.00,0.0,WeatherDisplay:10.37,2013-01-02 09:52:00,
2013-01-02 04:57:00,-2.6,-6.2,29.77,NNE,18,0.0,0.0,84,0.00,CLR,,0.00,0.0,WeatherDisplay:10.37,2013-01-02 09:57:00,
2013-01-02 05:02:00,-2.7,-6.3,29.77,NNE,18,0.0,0.0,84,0.00,CLR,,0.00,0.0,WeatherDisplay:10.37,2013-01-02 10:02:00,
2013-01-02 05:07:00,-2.8,-6.4,29.76,NNE,18,0.0,0.0,84,0.00,CLR,,0.00,0.0,WeatherDisplay:10.37,2013-01-02 10:07:00,
2013-01-02 05:12:00,-3.0,-6.6,29.76,NNE,18,1.1,1.1,84,0.00,CLR,,0.00,0.0,WeatherDisplay:10.37,2013-01-02 10:12:00,
2013-01-02 05:17:00,-3.1,-6.7,29.76,NNE,18,0.0,0.0,84,0.00,CLR,,0.00,0.0,WeatherDisplay:10.37,2013-01-02 10:17:00,
2013-01-02 05:22:00,-3.1,-6.7,29.77,NNE,18,1.1,1.1,84,0.00,CLR,,0.00,0.0,WeatherDisplay:10.37,2013-01-02 10:22:00,
2013-01-02 05:27:00,-3.2,-6.8,29.77,NNE,18,0.0,0.0,84,0.00,CLR,,0.00,0.0,WeatherDisplay:10.37,2013-01-02 10:27:00,
2013-01-02 05:32:00,-3.3,-6.9,29.77,NNE,18,0.0,0.0,84,0.00,CLR,,0.00,0.0,WeatherDisplay:10.37,2013-01-02 10:32:00,
2013-01-02 05:37:00,-3.3,-6.9,29.78,NNE,18,1.1,1.1,84,0.00,CLR,,0.00,0.0,WeatherDisplay:10.37,2013-01-02 10:37:00,
2013-01-02 05:42:00,-3.4,-7.0,29.78,NNE,18,0.0,0.0,84,0.00,CLR,,0.00,0.0,WeatherDisplay:10.37,2013-01-02 10:42:00,
2013-01-02 05:47:00,-3.4,-7.0,29.78,NNE,18,0.0,0.0,84,0.00,CLR,,0.00,0.0,WeatherDisplay:10.37,2013-01-02 10:47:00,
2013-01-02 05:52:00,-3.4,-7.0,29.78,NNE,18,0.0,0.0,84,0.00,CLR,,0.00,0.0,WeatherDisplay:10.37,2013-01-02 10:52:00,
2013-01-02 05:57:00,-3.4,-7.0,29.78,NNE,18,0.0,0.0,84,0.00,CLR,,0.00,0.0,WeatherDisplay:10.37,2013-01-02 10:57:00,
2013-01-02 06:02:00,-3.4,-7.0,29.78,NNE,18,0.0,0.0,84,0.00,CLR,,0.00,0.0,WeatherDisplay:10.37,2013-01-02 11:02:00,
2013-01-02 06:07:00,-3.4,-7.0,29.78,NNE,18,0.0,0.0,84,0.00,CLR,,0.00,0.0,WeatherDisplay:10.37,2013-01-02 11:07:00,
2013-01-02 06:12:00,-3.5,-7.1,29.78,NNE,18,0.0,0.0,84,0.00,CLR,,0.00,0.0,WeatherDisplay:10.37,2013-01-02 11:12:00,
2013-01-02 06:17:00,-3.5,-7.1,29.78,NNE,18,1.1,1.1,84,0.00,CLR,,0.00,0.0,WeatherDisplay:10.37,2013-01-02 11:17:00,
2013-01-02 06:22:00,-3.6,-7.2,29.78,NNE,18,0.0,0.0,84,0.00,CLR,,0.00,0.0,WeatherDisplay:10.37,2013-01-02 11:22:00,
2013-01-02 06:27:00,-3.6,-7.2,29.78,NNE,18,0.0,0.0,84,0.00,CLR,,0.00,0.0,WeatherDisplay:10.37,2013-01-02 11:27:00,
2013-01-02 06:32:00,-3.7,-7.3,29.78,NNE,18,0.0,0.0,84,0.00,CLR,,0.00,0.0,WeatherDisplay:10.37,2013-01-02 11:32:00,
2013-01-02 06:37:00,-3.7,-7.3,29.78,NNE,18,0.0,0.0,84,0.00,CLR,,0.00,0.0,WeatherDisplay:10.37,2013-01-02 11:37:00,
2013-01-02 06:42:00,-3.7,-7.3,29.78,NNE,18,0.0,0.0,84,0.00,CLR,,0.00,0.0,WeatherDisplay:10.37,2013-01-02 11:42:00,
2013-01-02 06:47:00,-3.8,-7.4,29.78,NNE,18,0.0,0.0,84,0.00,CLR,,0.00,0.0,WeatherDisplay:10.37,2013-01-02 11:47:00,
2013-01-02 06:52:00,-3.8,-7.4,29.78,NNE,18,0.0,0.0,84,0.00,CLR,,0.00,0.0,WeatherDisplay:10.37,2013-01-02 11:52:00,
2013-01-02 06:57:00,-3.9,-7.5,29.78,NNE,18,0.0,0.0,84,0.00,CLR,,0.00,0.0,WeatherDisplay:10.37,2013-01-02 11:57:00,
2013-01-02 07:02:00,-3.9,-7.5,29.78,NNE,18,0.0,0.0,84,0.00,CLR,,0.00,0.0,WeatherDisplay:10.37,2013-01-02 12:02:00,
2013-01-02 07:07:00,-3.9,-7.5,29.78,NNE,18,1.1,1.1,84,0.00,CLR,,0.00,0.0,WeatherDisplay:10.37,2013-01-02 12:07:00,
2013-01-02 07:12:00,-3.8,-7.4,29.78,NNE,18,2.3,2.3,84,0.00,CLR,,0.00,0.0,WeatherDisplay:10.37,2013-01-02 12:12:00,
2013-01-02 07:17:00,-3.7,-7.3,29.78,NNE,18,0.0,0.0,84,0.00,CLR,,0.00,7.0,WeatherDisplay:10.37,2013-01-02 12:17:00,
2013-01-02 07:22:00,-3.7,-7.3,29.78,NNE,18,0.0,0.0,84,0.00,CLR,,0.00,11.0,WeatherDisplay:10.37,2013-01-02 12:22:00,
2013-01-02 07:27:00,-3.7,-7.1,29.78,NNE,18,1.1,0.0,85,0.00,FEW,,0.00,12.0,WeatherDisplay:10.37,2013-01-02 12:27:00,
2013-01-02 07:33:00,-3.7,-7.1,29.78,NNE,18,0.0,0.2,85,0.00,SCT,,0.00,14.0,WeatherDisplay:10.37,2013-01-02 12:33:00,
2013-01-02 07:38:00,-3.7,-7.1,29.78,NNE,18,0.0,0.0,85,0.00,BKN,,0.00,16.0,WeatherDisplay:10.37,2013-01-02 12:38:00,
2013-01-02 07:43:00,-3.6,-7.0,29.78,NNE,18,1.1,1.1,85,0.00,BKN,,0.00,16.0,WeatherDisplay:10.37,2013-01-02 12:43:00,
2013-01-02 07:48:00,-3.6,-7.0,29.78,NNE,18,1.1,1.1,85,0.00,BKN,,0.00,19.0,WeatherDisplay:10.37,2013-01-02 12:48:00,
2013-01-02 07:53:00,-3.5,-6.9,29.78,NNE,18,0.0,0.0,85,0.00,BKN,,0.00,21.0,WeatherDisplay:10.37,2013-01-02 12:53:00,
2013-01-02 07:58:00,-3.4,-6.8,29.78,NNE,18,1.1,0.0,85,0.00,BKN,,0.00,25.0,WeatherDisplay:10.37,2013-01-02 12:58:00,
2013-01-02 08:03:00,-3.3,-6.7,29.78,NNE,18,1.1,1.1,85,0.00,BKN,,0.00,32.0,WeatherDisplay:10.37,2013-01-02 13:03:00,
2013-01-02 08:08:00,-3.1,-6.5,29.78,NNE,18,1.1,1.1,85,0.00,BKN,,0.00,37.0,WeatherDisplay:10.37,2013-01-02 13:08:00,
2013-01-02 08:13:00,-2.7,-6.1,29.78,NNE,18,1.1,1.1,85,0.00,BKN,,0.00,42.0,WeatherDisplay:10.37,2013-01-02 13:13:00,
2013-01-02 08:18:00,-2.4,-5.8,29.78,NNE,18,0.0,0.0,85,0.00,BKN,,0.00,49.0,WeatherDisplay:10.37,2013-01-02 13:18:00,
2013-01-02 08:23:00,-2.2,-5.4,29.78,NNE,18,0.0,0.0,86,0.00,BKN,,0.00,56.0,WeatherDisplay:10.37,2013-01-02 13:23:00,
2013-01-02 08:28:00,-2.1,-5.3,29.78,NNE,18,0.0,0.0,86,0.00,BKN,,0.00,54.0,WeatherDisplay:10.37,2013-01-02 13:28:00,
2013-01-02 08:33:00,-1.7,-4.9,29.78,NNE,18,1.1,1.1,86,0.00,BKN,,0.00,60.0,WeatherDisplay:10.37,2013-01-02 13:33:00,
2013-01-02 08:38:00,-1.4,-4.6,29.78,NNE,18,0.0,0.0,86,0.00,BKN,,0.00,69.0,WeatherDisplay:10.37,2013-01-02 13:38:00,
2013-01-02 08:43:00,-0.1,-3.0,29.78,NNE,18,0.0,0.0,87,0.00,BKN,,0.00,70.0,WeatherDisplay:10.37,2013-01-02 13:43:00,
2013-01-02 08:48:00,0.8,-2.2,29.78,NNE,18,0.0,0.0,87,0.00,BKN,,0.00,69.0,WeatherDisplay:10.37,2013-01-02 13:48:00,
2013-01-02 08:53:00,1.4,-1.6,29.79,NNE,18,1.1,1.1,87,0.00,BKN,,0.00,86.0,WeatherDisplay:10.37,2013-01-02 13:53:00,
2013-01-02 08:58:00,1.8,-1.2,29.79,NNE,18,0.0,0.1,87,0.00,SCT,,0.00,114.0,WeatherDisplay:10.37,2013-01-02 13:58:00,
2013-01-02 09:03:00,2.3,-0.7,29.79,NNE,17,3.5,3.5,87,0.00,SCT,,0.00,116.0,WeatherDisplay:10.37,2013-01-02 14:03:00,
2013-01-02 09:08:00,2.7,-0.3,29.79,NNE,17,3.5,3.5,87,0.00,BKN,,0.00,84.0,WeatherDisplay:10.37,2013-01-02 14:08:00,
2013-01-02 09:13:00,3.2,0.0,29.79,NNE,17,1.1,1.1,86,0.00,SCT,,0.00,146.0,WeatherDisplay:10.37,2013-01-02 14:13:00,
2013-01-02 09:18:00,3.8,0.8,29.79,NNE,17,0.0,0.0,87,0.00,CLR,,0.00,176.0,WeatherDisplay:10.37,2013-01-02 14:18:00,
2013-01-02 09:23:00,4.7,1.7,29.80,NNE,17,2.3,2.3,87,0.00,CLR,,0.00,200.0,WeatherDisplay:10.37,2013-01-02 14:23:00,
2013-01-02 09:28:00,5.4,2.4,29.80,NNE,17,0.0,0.0,87,0.00,BKN,,0.00,107.0,WeatherDisplay:10.37,2013-01-02 14:28:00,
2013-01-02 09:33:00,5.7,2.7,29.80,NNE,17,0.0,0.0,87,0.00,SCT,,0.00,130.0,WeatherDisplay:10.37,2013-01-02 14:33:00,
2013-01-02 09:38:00,6.4,3.4,29.80,NNE,17,0.0,0.0,87,0.00,SCT,,0.00,132.0,WeatherDisplay:10.37,2013-01-02 14:38:00,
2013-01-02 09:43:00,7.2,4.1,29.80,NNE,17,0.0,0.0,87,0.00,FEW,,0.00,181.0,WeatherDisplay:10.37,2013-01-02 14:43:00,
2013-01-02 09:48:00,8.0,4.9,29.80,NNE,17,0.0,0.0,87,0.00,FEW,,0.00,199.0,WeatherDisplay:10.37,2013-01-02 14:48:00,
2013-01-02 09:53:00,9.1,5.8,29.80,NNE,17,0.0,0.0,86,0.00,CLR,,0.00,239.0,WeatherDisplay:10.37,2013-01-02 14:53:00,
2013-01-02 09:58:00,9.1,5.5,29.80,NNE,17,0.0,0.0,85,0.00,FEW,,0.00,214.0,WeatherDisplay:10.37,2013-01-02 14:58:00,
2013-01-02 10:03:00,10.0,6.6,29.80,NNE,17,0.0,0.0,86,0.00,CLR,,0.00,221.0,WeatherDisplay:10.37,2013-01-02 15:03:00,
2013-01-02 10:08:00,10.8,7.4,29.81,NNE,17,0.0,0.0,86,0.00,CLR,,0.00,185.0,WeatherDisplay:10.37,2013-01-02 15:08:00,
2013-01-02 10:13:00,11.7,8.3,29.81,NNE,17,0.0,0.0,86,0.00,CLR,,0.00,260.0,WeatherDisplay:10.37,2013-01-02 15:13:00,
2013-01-02 10:18:00,12.2,8.3,29.81,NNE,17,0.0,0.0,84,0.00,CLR,,0.00,264.0,WeatherDisplay:10.37,2013-01-02 15:18:00,
2013-01-02 10:23:00,14.5,9.5,29.80,NNE,17,2.3,2.3,80,0.00,CLR,,0.00,276.0,WeatherDisplay:10.37,2013-01-02 15:23:00,
2013-01-02 10:28:00,15.2,9.0,29.80,NNE,17,1.1,1.1,76,0.00,CLR,,0.00,265.0,WeatherDisplay:10.37,2013-01-02 15:28:00,
2013-01-02 10:33:00,16.2,9.4,29.80,NNE,17,0.0,0.0,74,0.00,CLR,,0.00,287.0,WeatherDisplay:10.37,2013-01-02 15:33:00,
2013-01-02 10:38:00,17.0,9.2,29.80,NNE,17,0.0,0.0,71,0.00,CLR,,0.00,174.0,WeatherDisplay:10.37,2013-01-02 15:38:00,
2013-01-02 10:43:00,16.6,8.2,29.80,NE,37,2.3,2.3,69,0.00,CLR,,0.00,399.0,WeatherDisplay:10.37,2013-01-02 15:43:00,
2013-01-02 10:48:00,16.8,8.1,29.80,NE,38,1.1,1.1,68,0.00,SCT,,0.00,153.0,WeatherDisplay:10.37,2013-01-02 15:48:00,
2013-01-02 10:53:00,16.7,7.6,29.79,NE,38,2.3,2.3,67,0.00,CLR,,0.00,267.0,WeatherDisplay:10.37,2013-01-02 15:53:00,
2013-01-02 10:58:00,16.8,7.7,29.79,NE,37,0.0,0.0,67,0.00,CLR,,0.00,281.0,WeatherDisplay:10.37,2013-01-02 15:58:00,
2013-01-02 11:03:00,17.2,7.8,29.79,NE,37,1.1,0.0,66,0.00,BKN,,0.00,153.0,WeatherDisplay:10.37,2013-01-02 16:03:00,
2013-01-02 11:08:00,17.3,7.9,29.79,NE,38,0.0,0.0,66,0.00,BKN,,0.00,229.0,WeatherDisplay:10.37,2013-01-02 16:08:00,
2013-01-02 11:13:00,17.6,7.5,29.79,NE,38,1.1,1.1,64,0.00,BKN,,0.00,100.0,WeatherDisplay:10.37,2013-01-02 16:13:00,
2013-01-02 11:18:00,17.6,7.1,29.79,ENE,66,1.1,0.0,63,0.00,BKN,,0.00,95.0,WeatherDisplay:10.37,2013-01-02 16:18:00,
2013-01-02 11:23:00,17.8,7.0,29.78,ENE,66,1.1,1.1,62,0.00,SCT,,0.00,236.0,WeatherDisplay:10.37,2013-01-02 16:23:00,
2013-01-02 11:28:00,18.0,6.8,29.78,ENE,60,3.5,3.5,61,0.00,SCT,,0.00,234.0,WeatherDisplay:10.37,2013-01-02 16:28:00,
2013-01-02 11:33:00,18.0,6.4,29.78,ENE,60,2.3,2.3,60,0.00,FEW,,0.00,279.0,WeatherDisplay:10.37,2013-01-02 16:33:00,
2013-01-02 11:38:00,18.2,6.6,29.77,ENE,60,3.5,3.5,60,0.00,FEW,,0.00,267.0,WeatherDisplay:10.37,2013-01-02 16:38:00,
2013-01-02 11:43:00,18.6,6.6,29.77,ENE,60,2.3,0.0,59,0.00,BKN,,0.00,171.0,WeatherDisplay:10.37,2013-01-02 16:43:00,
2013-01-02 11:48:00,18.9,6.9,29.77,East,86,3.5,3.5,59,0.00,BKN,,0.00,236.0,WeatherDisplay:10.37,2013-01-02 16:48:00,
2013-01-02 11:53:00,19.0,7.0,29.77,East,86,2.3,2.3,59,0.00,SCT,,0.00,204.0,WeatherDisplay:10.37,2013-01-02 16:53:00,
2013-01-02 11:58:00,19.1,7.5,29.77,ENE,72,3.5,3.5,60,0.00,FEW,,0.00,236.0,WeatherDisplay:10.37,2013-01-02 16:58:00,
2013-01-02 12:03:00,19.4,7.4,29.77,ENE,72,2.3,2.3,59,0.00,BKN,,0.00,146.0,WeatherDisplay:10.37,2013-01-02 17:03:00,
2013-01-02 12:08:00,19.5,7.1,29.77,ENE,73,1.1,1.1,58,0.00,BKN,,0.00,113.0,WeatherDisplay:10.37,2013-01-02 17:08:00,
2013-01-02 12:13:00,19.6,6.8,29.77,ENE,72,3.5,3.5,57,0.00,BKN,,0.00,121.0,WeatherDisplay:10.37,2013-01-02 17:13:00,
2013-01-02 12:18:00,19.7,6.9,29.77,ENE,72,2.3,2.3,57,0.00,BKN,,0.00,114.0,WeatherDisplay:10.37,2013-01-02 17:18:00,
2013-01-02 12:23:00,19.7,6.9,29.77,East,81,3.5,3.5,57,0.00,BKN,,0.00,58.0,WeatherDisplay:10.37,2013-01-02 17:23:00,
2013-01-02 12:28:00,19.7,6.5,29.77,WNW,291,4.0,4.0,56,0.00,BKN,,0.00,72.0,WeatherDisplay:10.37,2013-01-02 17:28:00,
2013-01-02 12:33:00,19.7,6.1,29.77,WNW,284,11.0,11.0,55,0.00,BKN,,0.00,62.0,WeatherDisplay:10.37,2013-01-02 17:33:00,
2013-01-02 12:38:00,19.7,6.1,29.77,WNW,284,12.0,12.0,55,0.00,BKN,,0.00,56.0,WeatherDisplay:10.37,2013-01-02 17:38:00,
2013-01-02 12:43:00,19.7,5.7,29.77,WNW,288,12.7,12.7,54,0.00,BKN,,0.00,51.0,WeatherDisplay:10.37,2013-01-02 17:43:00,
2013-01-02 12:48:00,19.7,5.7,29.77,West,275,17.3,17.3,54,0.00,BKN,,0.00,51.0,WeatherDisplay:10.37,2013-01-02 17:48:00,
2013-01-02 12:53:00,19.7,5.7,29.78,West,280,16.1,16.1,54,0.00,BKN,,0.00,58.0,WeatherDisplay:10.37,2013-01-02 17:53:00,
2013-01-02 12:58:00,19.5,5.9,29.78,WNW,284,13.8,13.8,55,0.00,BKN,,0.00,35.0,WeatherDisplay:10.37,2013-01-02 17:58:00,
2013-01-02 13:03:00,19.4,5.4,29.78,WNW,283,15.0,15.0,54,0.00,BKN,,0.00,39.0,WeatherDisplay:10.37,2013-01-02 18:03:00,
2013-01-02 13:08:00,19.4,5.4,29.77,WNW,296,14.0,14.0,54,0.00,BKN,,0.00,37.0,WeatherDisplay:10.37,2013-01-02 18:08:00,
2013-01-02 13:13:00,19.4,7.0,29.77,West,269,11.5,11.5,58,0.00,BKN,,0.00,33.0,WeatherDisplay:10.37,2013-01-02 18:13:00,
2013-01-02 13:18:00,19.4,5.0,29.77,West,275,6.9,6.9,53,0.00,BKN,,0.00,33.0,WeatherDisplay:10.37,2013-01-02 18:18:00,
2013-01-02 13:23:00,19.4,5.0,29.77,West,279,6.9,6.9,53,0.00,BKN,,0.00,33.0,WeatherDisplay:10.37,2013-01-02 18:23:00,
2013-01-02 13:28:00,19.5,5.1,29.77,West,279,5.8,5.8,53,0.00,BKN,,0.00,44.0,WeatherDisplay:10.37,2013-01-02 18:28:00,
2013-01-02 13:33:00,19.7,4.9,29.77,NW,311,10.0,10.0,52,0.00,BKN,,0.00,35.0,WeatherDisplay:10.37,2013-01-02 18:33:00,
2013-01-02 13:38:00,19.9,5.1,29.77,West,278,11.5,11.5,52,0.00,BKN,,0.00,37.0,WeatherDisplay:10.37,2013-01-02 18:38:00,
2013-01-02 13:43:00,20.0,4.7,29.77,West,260,9.0,9.0,51,0.00,BKN,,0.00,77.0,WeatherDisplay:10.37,2013-01-02 18:43:00,
2013-01-02 13:48:00,20.2,5.4,29.77,NW,311,13.0,13.0,52,0.00,BKN,,0.00,84.0,WeatherDisplay:10.37,2013-01-02 18:48:00,
2013-01-02 13:53:00,20.2,4.1,29.79,WNW,292,16.1,16.1,49,0.00,BKN,,0.00,42.0,WeatherDisplay:10.37,2013-01-02 18:53:00,
2013-01-02 13:58:00,20.2,4.5,29.79,WSW,254,12.7,12.7,50,0.00,BKN,,0.00,67.0,WeatherDisplay:10.37,2013-01-02 18:58:00,
2013-01-02 14:03:00,20.0,3.9,29.79,West,265,10.4,10.4,49,0.00,BKN,,0.00,40.0,WeatherDisplay:10.37,2013-01-02 19:03:00,
2013-01-02 14:09:00,19.7,3.6,29.79,WNW,290,16.1,16.1,49,0.00,BKN,,0.00,60.0,WeatherDisplay:10.37,2013-01-02 19:09:00,
2013-01-02 14:14:00,19.7,3.6,29.79,West,259,12.7,12.7,49,0.00,BKN,,0.00,30.0,WeatherDisplay:10.37,2013-01-02 19:14:00,
2013-01-02 14:19:00,19.5,3.4,29.79,WNW,298,17.3,17.3,49,0.00,BKN,,0.00,28.0,WeatherDisplay:10.37,2013-01-02 19:19:00,
2013-01-02 14:24:00,19.3,3.7,29.80,WNW,294,15.0,15.0,50,0.00,BKN,,0.00,28.0,WeatherDisplay:10.37,2013-01-02 19:24:00,
2013-01-02 14:29:00,19.2,3.6,29.80,WNW,289,18.4,18.4,50,0.00,BKN,,0.00,28.0,WeatherDisplay:10.37,2013-01-02 19:29:00,
2013-01-02 14:34:00,18.9,3.7,29.80,WNW,299,16.1,16.1,51,0.00,BKN,,0.00,26.0,WeatherDisplay:10.37,2013-01-02 19:34:00,
2013-01-02 14:39:00,18.7,3.1,29.81,WNW,288,15.0,15.0,50,0.00,BKN,,0.00,26.0,WeatherDisplay:10.37,2013-01-02 19:39:00,
2013-01-02 14:44:00,18.5,2.9,29.81,NW,317,16.1,16.1,50,0.00,BKN,,0.00,26.0,WeatherDisplay:10.37,2013-01-02 19:44:00,
2013-01-02 14:49:00,18.4,2.0,29.81,NW,321,19.6,19.6,48,0.00,BKN,,0.00,25.0,WeatherDisplay:10.37,2013-01-02 19:49:00,
2013-01-02 14:54:00,18.3,1.4,29.82,West,273,15.0,15.0,47,0.00,BKN,,0.00,25.0,WeatherDisplay:10.37,2013-01-02 19:54:00,
2013-01-02 14:59:00,18.2,0.9,29.82,WNW,299,17.3,17.3,46,0.00,BKN,,0.00,25.0,WeatherDisplay:10.37,2013-01-02 19:59:00,
2013-01-02 15:04:00,18.1,0.8,29.82,West,262,6.9,6.9,46,0.00,BKN,,0.00,23.0,WeatherDisplay:10.37,2013-01-02 20:04:00,
2013-01-02 15:09:00,18.0,1.1,29.83,WSW,241,12.7,12.7,47,0.00,BKN,,0.00,23.0,WeatherDisplay:10.37,2013-01-02 20:09:00,
2013-01-02 15:14:00,18.0,0.7,29.83,West,265,12.7,12.7,46,0.00,BKN,,0.00,21.0,WeatherDisplay:10.37,2013-01-02 20:14:00,
2013-01-02 15:19:00,17.8,0.9,29.83,West,273,6.9,6.9,47,0.00,BKN,,0.00,21.0,WeatherDisplay:10.37,2013-01-02 20:19:00,
2013-01-02 15:24:00,17.7,0.9,29.83,WNW,298,19.6,19.6,47,0.00,BKN,,0.00,19.0,WeatherDisplay:10.37,2013-01-02 20:24:00,
2013-01-02 15:29:00,17.6,0.8,29.83,WNW,294,9.2,9.2,47,0.00,BKN,,0.00,19.0,WeatherDisplay:10.37,2013-01-02 20:29:00,
2013-01-02 15:34:00,17.4,0.6,29.83,WNW,298,11.5,11.5,47,0.00,BKN,,0.00,18.0,WeatherDisplay:10.37,2013-01-02 20:34:00,
2013-01-02 15:39:00,17.3,0.5,29.85,West,269,11.0,11.0,47,0.00,BKN,,0.00,18.0,WeatherDisplay:10.37,2013-01-02 20:39:00,
2013-01-02 15:44:00,17.0,0.2,29.85,WNW,296,11.5,11.5,47,0.00,BKN,,0.00,16.0,WeatherDisplay:10.37,2013-01-02 20:44:00,
2013-01-02 15:49:00,16.7,-0.1,29.85,West,272,9.0,9.0,47,0.00,BKN,,0.00,14.0,WeatherDisplay:10.37,2013-01-02 20:49:00,
2013-01-02 15:54:00,16.4,-0.8,29.86,NW,309,15.0,15.0,46,0.00,BKN,,0.00,12.0,WeatherDisplay:10.37,2013-01-02 20:54:00,
2013-01-02 15:59:00,16.1,-0.2,29.86,WNW,284,19.6,19.6,48,0.00,BKN,,0.00,12.0,WeatherDisplay:10.37,2013-01-02 20:59:00,
2013-01-02 16:04:00,15.8,-0.5,29.86,West,275,9.2,9.2,48,0.00,SCT,,0.00,11.0,WeatherDisplay:10.37,2013-01-02 21:04:00,
2013-01-02 16:09:00,15.4,-0.8,29.87,NW,313,10.4,10.4,48,0.00,FEW,,0.00,9.0,WeatherDisplay:10.37,2013-01-02 21:09:00,
2013-01-02 16:14:00,15.0,-0.8,29.87,West,280,11.5,11.5,49,0.00,CLR,,0.00,7.0,WeatherDisplay:10.37,2013-01-02 21:14:00,
2013-01-02 16:19:00,14.8,-0.9,29.87,NW,310,8.1,8.1,49,0.00,CLR,,0.00,5.0,WeatherDisplay:10.37,2013-01-02 21:19:00,
2013-01-02 16:24:00,14.4,-0.9,29.89,West,267,20.7,20.7,50,0.00,CLR,,0.00,0.0,WeatherDisplay:10.37,2013-01-02 21:24:00,
2013-01-02 16:29:00,14.1,-0.7,29.89,West,275,18.0,18.0,51,0.00,CLR,,0.00,0.0,WeatherDisplay:10.37,2013-01-02 21:29:00,
2013-01-02 16:34:00,13.9,-0.5,29.89,NW,318,18.0,18.0,52,0.00,CLR,,0.00,0.0,WeatherDisplay:10.37,2013-01-02 21:34:00,
2013-01-02 16:39:00,13.6,-1.2,29.90,West,267,17.3,17.3,51,0.00,CLR,,0.00,0.0,WeatherDisplay:10.37,2013-01-02 21:39:00,
2013-01-02 16:44:00,13.4,-1.4,29.90,West,275,13.8,13.8,51,0.00,CLR,,0.00,0.0,WeatherDisplay:10.37,2013-01-02 21:44:00,
2013-01-02 16:49:00,13.1,-1.3,29.90,WNW,301,19.0,19.0,52,0.00,CLR,,0.00,0.0,WeatherDisplay:10.37,2013-01-02 21:49:00,
2013-01-02 16:54:00,12.9,-1.9,29.91,WNW,298,12.7,12.7,51,0.00,CLR,,0.00,0.0,WeatherDisplay:10.37,2013-01-02 21:54:00,
2013-01-02 16:59:00,12.8,-1.5,29.91,NW,306,10.4,10.4,52,0.00,CLR,,0.00,0.0,WeatherDisplay:10.37,2013-01-02 21:59:00,
2013-01-02 17:04:00,12.6,-1.7,29.91,West,280,13.8,13.8,52,0.00,CLR,,0.00,0.0,WeatherDisplay:10.37,2013-01-02 22:04:00,
2013-01-02 17:09:00,12.5,-1.8,29.92,West,278,16.0,16.0,52,0.00,CLR,,0.00,0.0,WeatherDisplay:10.37,2013-01-02 22:09:00,
2013-01-02 17:14:00,12.3,-2.0,29.92,NW,313,11.5,11.5,52,0.00,CLR,,0.00,0.0,WeatherDisplay:10.37,2013-01-02 22:14:00,
2013-01-02 17:19:00,12.1,-1.8,29.92,WNW,301,17.3,17.3,53,0.00,CLR,,0.00,0.0,WeatherDisplay:10.37,2013-01-02 22:19:00,
2013-01-02 17:24:00,11.9,-1.6,29.92,WNW,286,16.1,16.1,54,0.00,CLR,,0.00,0.0,WeatherDisplay:10.37,2013-01-02 22:24:00,
2013-01-02 17:29:00,11.8,-2.1,29.92,West,269,17.0,17.0,53,0.00,CLR,,0.00,0.0,WeatherDisplay:10.37,2013-01-02 22:29:00,
2013-01-02 17:34:00,11.6,-2.3,29.92,West,275,19.6,19.6,53,0.00,CLR,,0.00,0.0,WeatherDisplay:10.37,2013-01-02 22:34:00,
2013-01-02 17:39:00,11.5,-2.0,29.92,WNW,293,20.7,20.7,54,0.00,CLR,,0.00,0.0,WeatherDisplay:10.37,2013-01-02 22:39:00,
2013-01-02 17:44:00,11.5,-2.3,29.92,WNW,292,17.3,17.3,53,0.00,CLR,,0.00,0.0,WeatherDisplay:10.37,2013-01-02 22:44:00,
2013-01-02 17:49:00,11.4,-2.4,29.92,WNW,291,21.0,21.0,53,0.00,CLR,,0.00,0.0,WeatherDisplay:10.37,2013-01-02 22:49:00,
2013-01-02 17:54:00,11.2,-2.6,29.94,West,274,18.4,18.4,53,0.00,CLR,,0.00,0.0,WeatherDisplay:10.37,2013-01-02 22:54:00,
2013-01-02 17:59:00,11.0,-2.4,29.94,WNW,296,19.0,19.0,54,0.00,CLR,,0.00,0.0,WeatherDisplay:10.37,2013-01-02 22:59:00,
2013-01-02 18:04:00,10.9,-2.5,29.94,WNW,290,17.3,17.3,54,0.00,CLR,,0.00,0.0,WeatherDisplay:10.37,2013-01-02 23:04:00,
2013-01-02 18:09:00,10.7,-3.1,29.94,West,268,13.0,13.0,53,0.00,CLR,,0.00,0.0,WeatherDisplay:10.37,2013-01-02 23:09:00,
2013-01-02 18:14:00,10.7,-3.5,29.94,NW,304,18.4,18.4,52,0.00,CLR,,0.00,0.0,WeatherDisplay:10.37,2013-01-02 23:14:00,
2013-01-02 18:19:00,10.7,-3.5,29.94,WNW,298,11.0,11.0,52,0.00,CLR,,0.00,0.0,WeatherDisplay:10.37,2013-01-02 23:19:00,
2013-01-02 18:24:00,10.7,-3.9,29.95,West,273,16.1,16.1,51,0.00,CLR,,0.00,0.0,WeatherDisplay:10.37,2013-01-02 23:24:00,
2013-01-02 18:29:00,10.7,-4.3,29.95,West,277,18.4,18.4,50,0.00,CLR,,0.00,0.0,WeatherDisplay:10.37,2013-01-02 23:29:00,
2013-01-02 18:34:00,10.6,-4.4,29.95,WNW,295,16.1,16.1,50,0.00,CLR,,0.00,0.0,WeatherDisplay:10.37,2013-01-02 23:34:00,
2013-01-02 18:39:00,10.4,-4.6,29.95,WNW,284,11.5,11.5,50,0.00,CLR,,0.00,0.0,WeatherDisplay:10.37,2013-01-02 23:39:00,
2013-01-02 18:44:00,10.2,-4.8,29.95,WNW,286,10.4,10.4,50,0.00,CLR,,0.00,0.0,WeatherDisplay:10.37,2013-01-02 23:44:00,
2013-01-02 18:49:00,10.0,-4.6,29.95,WNW,300,9.2,9.2,51,0.00,CLR,,0.00,0.0,WeatherDisplay:10.37,2013-01-02 23:49:00,
2013-01-02 18:54:00,9.9,-4.2,29.95,WNW,299,11.5,11.5,52,0.00,CLR,,0.00,0.0,WeatherDisplay:10.37,2013-01-02 23:54:00,
2013-01-02 18:59:00,9.9,-4.2,29.95,NW,317,11.5,11.5,52,0.00,CLR,,0.00,0.0,WeatherDisplay:10.37,2013-01-02 23:59:00,
2013-01-02 19:04:00,9.8,-4.7,29.95,West,274,11.5,11.5,51,0.00,CLR,,0.00,0.0,WeatherDisplay:10.37,2013-01-03 00:04:00,
2013-01-02 19:09:00,9.7,-4.8,29.95,WNW,284,11.5,11.5,51,0.00,CLR,,0.00,0.0,WeatherDisplay:10.37,2013-01-03 00:09:00,
2013-01-02 19:14:00,9.5,-5.0,29.95,WNW,292,14.0,14.0,51,0.00,CLR,,0.00,0.0,WeatherDisplay:10.37,2013-01-03 00:14:00,
2013-01-02 19:19:00,9.4,-5.1,29.95,WSW,246,17.3,17.3,51,0.00,CLR,,0.00,0.0,WeatherDisplay:10.37,2013-01-03 00:19:00,
2013-01-02 19:24:00,9.4,-5.1,29.94,WNW,299,8.1,8.1,51,0.00,CLR,,0.00,0.0,WeatherDisplay:10.37,2013-01-03 00:24:00,
2013-01-02 19:29:00,9.3,-5.6,29.94,WSW,240,10.4,10.4,50,0.00,CLR,,0.00,0.0,WeatherDisplay:10.37,2013-01-03 00:29:00,
2013-01-02 19:34:00,9.2,-5.7,29.94,West,275,3.5,3.5,50,0.00,CLR,,0.00,0.0,WeatherDisplay:10.37,2013-01-03 00:34:00,
2013-01-02 19:39:00,9.2,-5.7,29.95,NW,310,11.5,11.5,50,0.00,CLR,,0.00,0.0,WeatherDisplay:10.37,2013-01-03 00:39:00,
2013-01-02 19:44:00,9.2,-5.7,29.95,WNW,290,3.5,3.5,50,0.00,CLR,,0.00,0.0,WeatherDisplay:10.37,2013-01-03 00:44:00,
2013-01-02 19:49:00,9.1,-5.8,29.95,West,268,5.8,5.8,50,0.00,CLR,,0.00,0.0,WeatherDisplay:10.37,2013-01-03 00:49:00,
2013-01-02 19:54:00,8.9,-6.0,29.95,West,280,3.0,10.0,50,0.00,CLR,,0.00,0.0,WeatherDisplay:10.37,2013-01-03 00:54:00,
2013-01-02 20:00:00,8.7,-6.2,29.95,West,275,11.5,11.5,50,0.00,CLR,,0.00,0.0,WeatherDisplay:10.37,2013-01-03 01:00:00,
2013-01-02 20:05:00,8.5,-5.9,29.95,West,275,1.0,5.0,51,0.00,CLR,,0.00,0.0,WeatherDisplay:10.37,2013-01-03 01:05:00,
2013-01-02 20:10:00,8.3,-5.7,29.97,WNW,301,0.0,4.0,52,0.00,CLR,,0.00,0.0,WeatherDisplay:10.37,2013-01-03 01:10:00,
2013-01-02 20:15:00,8.1,-5.9,29.97,NNW,348,3.0,6.0,52,0.00,CLR,,0.00,0.0,WeatherDisplay:10.37,2013-01-03 01:15:00,
2013-01-02 20:20:00,7.9,-6.1,29.97,WNW,286,2.0,7.0,52,0.00,CLR,,0.00,0.0,WeatherDisplay:10.37,2013-01-03 01:20:00,
2013-01-02 20:25:00,7.8,-5.5,29.97,West,274,0.0,2.0,54,0.00,CLR,,0.00,0.0,WeatherDisplay:10.37,2013-01-03 01:25:00,
2013-01-02 20:30:00,7.4,-5.0,29.97,West,272,1.1,1.1,56,0.00,CLR,,0.00,0.0,WeatherDisplay:10.37,2013-01-03 01:30:00,
2013-01-02 20:34:00,7.1,-5.0,29.97,West,272,0.0,1.0,57,0.00,CLR,,0.00,0.0,WeatherDisplay:10.37,2013-01-03 01:34:00,
2013-01-02 20:39:00,6.9,-5.1,29.96,West,272,0.0,0.0,57,0.00,CLR,,0.00,0.0,WeatherDisplay:10.37,2013-01-03 01:39:00,
2013-01-02 20:44:00,6.7,-5.3,29.96,West,272,2.0,2.0,57,0.00,CLR,,0.00,0.0,WeatherDisplay:10.37,2013-01-03 01:44:00,
2013-01-02 20:49:00,6.1,-5.5,29.96,West,272,3.5,3.5,58,0.00,CLR,,0.00,0.0,WeatherDisplay:10.37,2013-01-03 01:49:00,
2013-01-02 20:55:00,5.9,-6.1,29.97,West,272,1.1,0.0,57,0.00,CLR,,0.00,0.0,WeatherDisplay:10.37,2013-01-03 01:55:00,
2013-01-02 21:00:00,5.6,-5.7,29.97,West,272,0.0,0.3,59,0.00,CLR,,0.00,0.0,WeatherDisplay:10.37,2013-01-03 02:00:00,
2013-01-02 21:05:00,5.4,-5.5,29.97,West,272,0.0,1.0,60,0.00,CLR,,0.00,0.0,WeatherDisplay:10.37,2013-01-03 02:05:00,
2013-01-02 21:10:00,5.0,-5.5,29.97,West,272,0.0,0.0,61,0.00,CLR,,0.00,0.0,WeatherDisplay:10.37,2013-01-03 02:10:00,
2013-01-02 21:14:00,4.5,-5.7,29.97,West,272,0.0,0.0,62,0.00,CLR,,0.00,0.0,WeatherDisplay:10.37,2013-01-03 02:14:00,
2013-01-02 21:19:00,4.3,-5.9,29.97,West,272,0.0,0.0,62,0.00,CLR,,0.00,0.0,WeatherDisplay:10.37,2013-01-03 02:19:00,
2013-01-02 21:25:00,4.0,-5.8,29.97,West,272,0.0,1.0,63,0.00,CLR,,0.00,0.0,WeatherDisplay:10.37,2013-01-03 02:25:00,
2013-01-02 21:30:00,3.7,-5.8,29.97,West,272,0.0,0.0,64,0.00,CLR,,0.00,0.0,WeatherDisplay:10.37,2013-01-03 02:30:00,
2013-01-02 21:35:00,3.3,-6.2,29.97,West,272,0.0,0.0,64,0.00,CLR,,0.00,0.0,WeatherDisplay:10.37,2013-01-03 02:35:00,
2013-01-02 21:40:00,3.0,-6.4,29.97,West,272,0.0,0.0,64,0.00,CLR,,0.00,0.0,WeatherDisplay:10.37,2013-01-03 02:40:00,
2013-01-02 21:45:00,2.8,-6.3,29.97,West,272,0.0,0.0,65,0.00,CLR,,0.00,0.0,WeatherDisplay:10.37,2013-01-03 02:45:00,
2013-01-02 21:50:00,2.4,-6.4,29.97,West,272,0.0,0.0,66,0.00,CLR,,0.00,0.0,WeatherDisplay:10.37,2013-01-03 02:50:00,
2013-01-02 21:55:00,2.1,-6.7,29.97,West,272,0.0,0.0,66,0.00,CLR,,0.00,0.0,WeatherDisplay:10.37,2013-01-03 02:55:00,
2013-01-02 22:00:00,1.8,-6.6,29.97,West,272,1.1,1.1,67,0.00,CLR,,0.00,0.0,WeatherDisplay:10.37,2013-01-03 03:00:00,
2013-01-02 22:05:00,1.5,-6.9,29.97,West,272,0.0,0.0,67,0.00,CLR,,0.00,0.0,WeatherDisplay:10.37,2013-01-03 03:05:00,
2013-01-02 22:10:00,1.3,-6.8,29.96,West,272,2.3,2.3,68,0.00,CLR,,0.00,0.0,WeatherDisplay:10.37,2013-01-03 03:10:00,
2013-01-02 22:15:00,1.0,-6.8,29.96,NNE,21,1.1,1.1,69,0.00,CLR,,0.00,0.0,WeatherDisplay:10.37,2013-01-03 03:15:00,
2013-01-02 22:20:00,0.9,-6.6,29.96,NNE,21,0.0,0.0,70,0.00,CLR,,0.00,0.0,WeatherDisplay:10.37,2013-01-03 03:20:00,
2013-01-02 22:25:00,0.7,-6.8,29.96,NNE,21,1.1,0.0,70,0.00,CLR,,0.00,0.0,WeatherDisplay:10.37,2013-01-03 03:25:00,
2013-01-02 22:30:00,0.6,-6.9,29.96,NNE,21,1.1,0.0,70,0.00,CLR,,0.00,0.0,WeatherDisplay:10.37,2013-01-03 03:30:00,
2013-01-02 22:35:00,0.5,-6.7,29.96,NNE,21,0.0,0.0,71,0.00,CLR,,0.00,0.0,WeatherDisplay:10.37,2013-01-03 03:35:00,
2013-01-02 22:41:00,0.3,-6.9,29.96,NNE,21,0.0,0.0,71,0.00,CLR,,0.00,0.0,WeatherDisplay:10.37,2013-01-03 03:41:00,
2013-01-02 22:46:00,0.2,-6.7,29.96,NNE,21,0.0,0.0,72,0.00,CLR,,0.00,0.0,WeatherDisplay:10.37,2013-01-03 03:46:00,
2013-01-02 22:51:00,0.1,-6.8,29.96,NNE,21,0.0,0.0,72,0.00,CLR,,0.00,0.0,WeatherDisplay:10.37,2013-01-03 03:51:00,
2013-01-02 22:56:00,0.0,-6.9,29.96,NNE,21,0.0,0.0,72,0.00,CLR,,0.00,0.0,WeatherDisplay:10.37,2013-01-03 03:56:00,
2013-01-02 23:01:00,-0.1,-7.0,29.96,NNE,21,0.0,0.0,72,0.00,CLR,,0.00,0.0,WeatherDisplay:10.37,2013-01-03 04:01:00,
2013-01-02 23:06:00,-0.2,-7.1,29.96,NNE,21,0.0,0.0,72,0.00,CLR,,0.00,0.0,WeatherDisplay:10.37,2013-01-03 04:06:00,
2013-01-02 23:11:00,-0.3,-7.2,29.96,NNE,21,0.0,0.0,72,0.00,CLR,,0.00,0.0,WeatherDisplay:10.37,2013-01-03 04:11:00,
2013-01-02 23:16:00,-0.4,-7.3,29.96,NNE,21,1.1,1.1,72,0.00,CLR,,0.00,0.0,WeatherDisplay:10.37,2013-01-03 04:16:00,
2013-01-02 23:21:00,-0.5,-7.1,29.97,NNE,21,0.0,0.0,73,0.00,CLR,,0.00,0.0,WeatherDisplay:10.37,2013-01-03 04:21:00,
2013-01-02 23:26:00,-0.6,-7.2,29.97,NNE,21,0.0,0.0,73,0.00,CLR,,0.00,0.0,WeatherDisplay:10.37,2013-01-03 04:26:00,
2013-01-02 23:31:00,-0.7,-7.0,29.97,NNE,21,0.0,0.0,74,0.00,CLR,,0.00,0.0,WeatherDisplay:10.37,2013-01-03 04:31:00,
2013-01-02 23:36:00,-0.8,-7.1,29.97,NNE,21,0.0,0.0,74,0.00,CLR,,0.00,0.0,WeatherDisplay:10.37,2013-01-03 04:36:00,
2013-01-02 23:41:00,-0.9,-6.9,29.97,NNE,21,0.0,0.0,75,0.00,CLR,,0.00,0.0,WeatherDisplay:10.37,2013-01-03 04:41:00,
2013-01-02 23:46:00,-1.0,-7.0,29.97,NNE,21,0.0,0.0,75,0.00,CLR,,0.00,0.0,WeatherDisplay:10.37,2013-01-03 04:46:00,
2013-01-02 23:51:00,-1.2,-7.2,29.97,NNE,21,0.0,0.0,75,0.00,CLR,,0.00,0.0,WeatherDisplay:10.37,2013-01-03 04:51:00,
2013-01-02 23:56:00,-1.3,-7.3,29.97,NNE,21,0.0,0.0,75,0.00,CLR,,0.00,0.0,WeatherDisplay:10.37,2013-01-03 04:56:00,